Azamara Quest — V7DM6 — position and weather

sailwx.info

Track history (hours):
 
Tides and Currents Weather Stations Pressure Air Temp Water Temp Dewpoint Dewpoint Depression Visibility Wind Speed Wind Dir Waves Ship Positions

Azamara Quest

Last reported at 2018-May-24 20:40 UTC. Time now 2018-May-25 05:29 UTC.
Position N 53°21' W 006°12'.

Length 184 m; draft 10.2 m.

Type: Tanker. MMSI: 538005401.

Date/timePositionNaut miles runAvg speedWind from/ knotsBaromVisibWave heightAir tempDewpointWater temp
2018-May-24 20:40N 53°21' W 006°12'0 0.0
2018-May-24 20:07N 53°21' W 006°12'0 0.0
2018-May-24 19:58N 53°21' W 006°12'0 0.0
2018-May-24 15:40N 53°21' W 006°12'0 0.0
2018-May-24 07:19N 53°21' W 006°12'1 1.4
2018-May-24 06:43N 53°21' W 006°11'2 8.0
2018-May-24 06:26N 53°21' W 006°07'2 0.8
2018-May-24 04:32N 53°19' W 006°06'0 0.0
2018-May-23 23:41N 53°19' W 006°06'1 2.9
2018-May-23 23:28N 53°19' W 006°06'4 8.2
2018-May-23 23:00N 53°21' W 006°01'713.8
2018-May-23 22:30N 53°27' W 005°54'1414.3
2018-May-23 21:30N 53°38' W 005°40'714.2
2018-May-23 21:00N 53°44' W 005°33'714.0
2018-May-23 20:30N 53°49' W 005°25'713.5
2018-May-23 20:00N 53°55' W 005°19'713.4
2018-May-23 19:30N 54°00' W 005°12'713.5
2018-May-23 19:00N 54°07' W 005°10'713.6
2018-May-23 18:30N 54°14' W 005°08'713.6
2018-May-23 18:01N 54°20' W 005°07'713.3
2018-May-23 17:30N 54°27' W 005°08'713.8
2018-May-23 17:00N 54°33' W 005°13'714.6
2018-May-23 16:30N 54°40' W 005°18'815.0
2018-May-23 16:00N 54°47' W 005°24'714.6
2018-May-23 15:30N 54°53' W 005°29'714.8
2018-May-23 15:00N 54°59' W 005°37'1114.7
2018-May-23 14:14N 55°08' W 005°49'1114.5
2018-May-23 13:28N 55°17' W 006°01'613.2
2018-May-23 13:01N 55°21' W 006°08'713.2
2018-May-23 12:31N 55°23' W 006°20'713.2
2018-May-23 12:00N 55°25' W 006°31'612.4
2018-May-23 11:30N 55°26' W 006°42'611.8
2018-May-23 11:00N 55°28' W 006°52'610.5
2018-May-23 10:27N 55°30' W 007°01'510.8
2018-May-23 09:58N 55°35' W 007°05'610.9
2018-May-23 09:23N 55°41' W 007°10'1311.4
2018-May-23 08:16N 55°52' W 007°19'373 9.3
2018-May-21 16:16N 58°55' E 002°45'512.2
2018-May-21 15:52N 58°53' E 002°54'512.2
2018-May-21 15:30N 58°52' E 003°02'612.2
2018-May-21 14:58N 58°51' E 003°14'612.1
2018-May-21 14:29N 58°49' E 003°25'612.5
2018-May-21 14:00N 58°47' E 003°36'712.9
2018-May-21 13:29N 58°45' E 003°49'713.0
2018-May-21 12:59N 58°43' E 004°01'613.2
2018-May-21 12:30N 58°41' E 004°12'712.9
2018-May-21 11:56N 58°39' E 004°26'612.5
2018-May-21 11:25N 58°37' E 004°37'611.5
2018-May-21 10:54N 58°35' E 004°48'411.3
2018-May-21 10:30N 58°34' E 004°56'611.3
2018-May-21 10:00N 58°30' E 005°05'712.1
2018-May-21 09:26N 58°26' E 005°15'614.7
2018-May-21 09:00N 58°22' E 005°24'816.5
2018-May-21 08:30N 58°16' E 005°36'816.6
2018-May-21 08:00N 58°11' E 005°48'816.1
2018-May-21 07:29N 58°05' E 005°60'715.6
2018-May-21 07:01N 58°00' E 006°10'714.0
2018-May-21 06:30N 57°56' E 006°20'613.0
2018-May-21 06:00N 57°51' E 006°29'713.1
2018-May-21 05:29N 57°48' E 006°40'713.8
2018-May-21 05:00N 57°48' E 006°53'713.4
2018-May-21 04:29N 57°47' E 007°05'713.7
2018-May-21 04:00N 57°47' E 007°18'713.6
2018-May-21 03:30N 57°46' E 007°30'713.5
2018-May-21 03:00N 57°46' E 007°43'713.5
2018-May-21 02:30N 57°47' E 007°56'713.8
2018-May-21 02:00N 57°50' E 008°07'713.7
2018-May-21 01:30N 57°54' E 008°18'713.4
2018-May-21 01:00N 57°57' E 008°29'1013.2
2018-May-21 00:15N 58°02' E 008°46'412.9
2018-May-20 23:56N 58°05' E 008°52'512.5
2018-May-20 23:30N 58°08' E 008°59'713.6
2018-May-20 23:00N 58°08' E 009°12'713.5
2018-May-20 22:30N 58°07' E 009°25'713.2
2018-May-20 22:00N 58°07' E 009°38'713.5
2018-May-20 21:30N 58°08' E 009°50'713.4
2018-May-20 21:00N 58°09' E 010°03'713.3
2018-May-20 20:29N 58°10' E 010°16'613.0
2018-May-20 20:00N 58°11' E 010°28'713.3
2018-May-20 19:30N 58°12' E 010°40'713.4
2018-May-20 19:00N 58°13' E 010°53'612.9
2018-May-20 18:30N 58°14' E 011°05'510.2
2018-May-20 18:00N 58°15' E 011°14'611.4
2018-May-20 17:30N 58°19' E 011°22'3 6.2
2018-May-20 17:00N 58°21' E 011°26'0 0.0
2018-May-20 04:33N 58°21' E 011°26'0 0.0
2018-May-20 04:30N 58°21' E 011°26'0 0.0
2018-May-20 03:09N 58°21' E 011°26'0 0.0
2018-May-20 03:00N 58°21' E 011°26'0 0.0
2018-May-20 00:39N 58°21' E 011°26'0 0.0
2018-May-20 00:21N 58°21' E 011°26'0 0.0
2018-May-20 00:00N 58°21' E 011°26'0 0.0
2018-May-18 22:31N 58°21' E 011°26'0 0.0
2018-May-18 22:30N 58°21' E 011°26'0 0.8
2018-May-18 22:00N 58°21' E 011°25'4 7.2
2018-May-18 21:30N 58°19' E 011°21'713.5
2018-May-18 21:01N 58°14' E 011°11'3 6.7
2018-May-18 20:30N 58°12' E 011°06'0 1.0
2018-May-18 20:01N 58°12' E 011°06'0 0.5
2018-May-18 19:31N 58°11' E 011°07'1 1.1
2018-May-18 19:01N 58°11' E 011°07'5 9.0
2018-May-18 18:30N 58°06' E 011°06'713.0
2018-May-18 18:00N 57°60' E 011°04'612.6
2018-May-18 17:31N 57°54' E 011°02'510.1
2018-May-18 17:01N 57°49' E 010°60'4 7.1
2018-May-18 16:30N 57°46' E 010°55'4 7.6
2018-May-18 16:00N 57°45' E 010°48'4 7.5
2018-May-18 15:30N 57°43' E 010°42'3 5.2
2018-May-18 15:01N 57°41' E 010°38'0 0.1
2018-May-18 14:27N 57°41' E 010°38'0 0.0
2018-May-18 13:57N 57°41' E 010°38'0 0.0
2018-May-18 13:30N 57°41' E 010°38'0 0.0
2018-May-18 13:00N 57°41' E 010°38'0 0.1
2018-May-18 12:30N 57°41' E 010°38'0 0.2
2018-May-18 12:00N 57°41' E 010°38'0 0.2
2018-May-18 11:30N 57°41' E 010°38'0 0.2
2018-May-18 11:00N 57°41' E 010°38'3 5.7
2018-May-18 10:30N 57°43' E 010°43'510.2
2018-May-18 10:00N 57°48' E 010°42'613.1
2018-May-18 09:30N 57°48' E 010°30'613.0
2018-May-18 09:00N 57°46' E 010°18'713.1
2018-May-18 08:30N 57°45' E 010°06'612.9
2018-May-18 08:00N 57°43' E 009°55'712.7
2018-May-18 07:29N 57°42' E 009°43'328 9.7
2018-May-16 21:42N 53°25' E 003°42'2 9.4
2018-May-16 21:28N 53°23' E 003°41'4 9.4
2018-May-16 21:00N 53°19' E 003°38'5 9.4
2018-May-16 20:30N 53°15' E 003°35'5 9.6
2018-May-16 19:57N 53°10' E 003°31'4 9.5
2018-May-16 19:29N 53°06' E 003°28'510.0
2018-May-16 19:00N 53°01' E 003°25'610.5
2018-May-16 18:26N 52°56' E 003°22'510.9
2018-May-16 17:58N 52°51' E 003°20'611.2
2018-May-16 17:27N 52°45' E 003°18'511.5
2018-May-16 17:00N 52°40' E 003°16'711.7
2018-May-16 16:26N 52°34' E 003°14'512.0
2018-May-16 16:00N 52°29' E 003°13'712.0
2018-May-16 15:23N 52°21' E 003°11'512.1
2018-May-16 14:56N 52°16' E 003°10'512.1
2018-May-16 14:30N 52°11' E 003°08'711.7
2018-May-16 13:53N 52°05' E 003°02'611.9
2018-May-16 13:22N 52°00' E 002°55'511.5
2018-May-16 12:59N 51°57' E 002°50'1011.2
2018-May-16 12:06N 51°49' E 002°40'110.8
2018-May-16 11:59N 51°48' E 002°39'510.5
2018-May-16 11:30N 51°44' E 002°34'510.2
2018-May-16 11:00N 51°40' E 002°28'5 9.8
2018-May-16 10:29N 51°36' E 002°23'5 9.3
2018-May-16 09:58N 51°33' E 002°18'4 8.8
2018-May-16 09:30N 51°29' E 002°14'4 8.6
2018-May-16 09:00N 51°25' E 002°12'4 8.9
2018-May-16 08:30N 51°21' E 002°09'4 8.8
2018-May-16 08:00N 51°17' E 002°06'4 8.7
2018-May-16 07:31N 51°13' E 002°03'5 9.1
2018-May-16 07:00N 51°11' E 001°56'5 9.3
2018-May-16 06:30N 51°09' E 001°50'5 9.3
2018-May-16 06:01N 51°06' E 001°44'5 9.6
2018-May-16 05:30N 51°03' E 001°39'5 9.8
2018-May-16 05:00N 50°59' E 001°34'510.7
2018-May-16 04:30N 50°55' E 001°28'611.4
2018-May-16 04:00N 50°49' E 001°25'612.1
2018-May-16 03:28N 50°43' E 001°22'511.6
2018-May-16 03:00N 50°39' E 001°16'712.4
2018-May-16 02:28N 50°35' E 001°08'1212.0
2018-May-16 01:27N 50°28' E 000°52'612.3
2018-May-16 01:00N 50°27' E 000°44'1612.5
2018-May-15 23:41N 50°23' E 000°19'612.9
2018-May-15 23:11N 50°21' E 000°09'313.2
2018-May-15 22:57N 50°20' E 000°05'613.6
2018-May-15 22:30N 50°19' W 000°05'714.2
2018-May-15 21:59N 50°17' W 000°16'1515.2
2018-May-15 21:00N 50°13' W 000°39'815.8
2018-May-15 20:30N 50°11' W 000°50'816.1
2018-May-15 20:00N 50°09' W 001°02'816.5
2018-May-15 19:30N 50°06' W 001°15'816.5
2018-May-15 19:00N 50°04' W 001°27'816.1
2018-May-15 18:30N 50°02' W 001°39'815.6
2018-May-15 18:00N 50°00' W 001°51'714.9
2018-May-15 17:30N 49°58' W 002°02'713.8
2018-May-15 17:00N 49°56' W 002°12'713.0
2018-May-15 16:30N 49°54' W 002°22'612.6
2018-May-15 16:01N 49°52' W 002°31'612.2
2018-May-15 15:30N 49°51' W 002°40'711.8
2018-May-15 14:53N 49°49' W 002°51'411.3
2018-May-15 14:30N 49°47' W 002°57'611.1
2018-May-15 14:00N 49°44' W 003°05'510.9
2018-May-15 13:30N 49°41' W 003°12'510.9
2018-May-15 13:00N 49°38' W 003°19'510.8
2018-May-15 12:30N 49°36' W 003°27'510.7
2018-May-15 12:00N 49°33' W 003°34'2511.0
2018-May-15 09:46N 49°22' W 004°07'311.4
2018-May-15 09:31N 49°20' W 004°11'711.7
2018-May-15 08:55N 49°16' W 004°20'2012.2
2018-May-15 07:17N 49°05' W 004°46'1413.0
2018-May-15 06:14N 48°58' W 005°03'413.7
2018-May-15 05:55N 48°56' W 005°09'913.8
2018-May-15 05:16N 48°52' W 005°21'414.3
2018-May-15 05:00N 48°50' W 005°26'1613.7
2018-May-15 03:51N 48°38' W 005°42'514.0
2018-May-15 03:28N 48°33' W 005°45'2113.3
2018-May-15 01:53N 48°12' W 005°38'1513.8
2018-May-15 00:49N 47°58' W 005°31'3912.2
2018-May-14 21:37N 47°28' W 004°54'112.6
2018-May-14 21:30N 47°28' W 004°52'812.7
2018-May-14 20:53N 47°24' W 004°42'  
Track history (hours):
 
Tides and Currents Weather Stations Pressure Air Temp Water Temp Dewpoint Dewpoint Depression Visibility Wind Speed Wind Dir Waves Ship Positions

Azamara Quest

Last reported at 2018-May-24 20:40 UTC. Time now 2018-May-25 05:29 UTC.
Position N 53°21' W 006°12'.

Length 184 m; draft 10.2 m.

Type: Tanker. MMSI: 538005401.

Date/timePositionNaut miles runAvg speedWind from/ knotsBaromVisibWave heightAir tempDewpointWater temp
2018-May-24 20:40N 53°21' W 006°12'0 0.0
2018-May-24 20:07N 53°21' W 006°12'0 0.0
2018-May-24 19:58N 53°21' W 006°12'0 0.0
2018-May-24 15:40N 53°21' W 006°12'0 0.0
2018-May-24 07:19N 53°21' W 006°12'1 1.4
2018-May-24 06:43N 53°21' W 006°11'2 8.0
2018-May-24 06:26N 53°21' W 006°07'2 0.8
2018-May-24 04:32N 53°19' W 006°06'0 0.0
2018-May-23 23:41N 53°19' W 006°06'1 2.9
2018-May-23 23:28N 53°19' W 006°06'4 8.2
2018-May-23 23:00N 53°21' W 006°01'713.8
2018-May-23 22:30N 53°27' W 005°54'1414.3
2018-May-23 21:30N 53°38' W 005°40'714.2
2018-May-23 21:00N 53°44' W 005°33'714.0
2018-May-23 20:30N 53°49' W 005°25'713.5
2018-May-23 20:00N 53°55' W 005°19'713.4
2018-May-23 19:30N 54°00' W 005°12'713.5
2018-May-23 19:00N 54°07' W 005°10'713.6
2018-May-23 18:30N 54°14' W 005°08'713.6
2018-May-23 18:01N 54°20' W 005°07'713.3
2018-May-23 17:30N 54°27' W 005°08'713.8
2018-May-23 17:00N 54°33' W 005°13'714.6
2018-May-23 16:30N 54°40' W 005°18'815.0
2018-May-23 16:00N 54°47' W 005°24'714.6
2018-May-23 15:30N 54°53' W 005°29'714.8
2018-May-23 15:00N 54°59' W 005°37'1114.7
2018-May-23 14:14N 55°08' W 005°49'1114.5
2018-May-23 13:28N 55°17' W 006°01'613.2
2018-May-23 13:01N 55°21' W 006°08'713.2
2018-May-23 12:31N 55°23' W 006°20'713.2
2018-May-23 12:00N 55°25' W 006°31'612.4
2018-May-23 11:30N 55°26' W 006°42'611.8
2018-May-23 11:00N 55°28' W 006°52'610.5
2018-May-23 10:27N 55°30' W 007°01'510.8
2018-May-23 09:58N 55°35' W 007°05'610.9
2018-May-23 09:23N 55°41' W 007°10'1311.4
2018-May-23 08:16N 55°52' W 007°19'373 9.3
2018-May-21 16:16N 58°55' E 002°45'512.2
2018-May-21 15:52N 58°53' E 002°54'512.2
2018-May-21 15:30N 58°52' E 003°02'612.2
2018-May-21 14:58N 58°51' E 003°14'612.1
2018-May-21 14:29N 58°49' E 003°25'612.5
2018-May-21 14:00N 58°47' E 003°36'712.9
2018-May-21 13:29N 58°45' E 003°49'713.0
2018-May-21 12:59N 58°43' E 004°01'613.2
2018-May-21 12:30N 58°41' E 004°12'712.9
2018-May-21 11:56N 58°39' E 004°26'612.5
2018-May-21 11:25N 58°37' E 004°37'611.5
2018-May-21 10:54N 58°35' E 004°48'411.3
2018-May-21 10:30N 58°34' E 004°56'611.3
2018-May-21 10:00N 58°30' E 005°05'712.1
2018-May-21 09:26N 58°26' E 005°15'614.7
2018-May-21 09:00N 58°22' E 005°24'816.5
2018-May-21 08:30N 58°16' E 005°36'816.6
2018-May-21 08:00N 58°11' E 005°48'816.1
2018-May-21 07:29N 58°05' E 005°60'715.6
2018-May-21 07:01N 58°00' E 006°10'714.0
2018-May-21 06:30N 57°56' E 006°20'613.0
2018-May-21 06:00N 57°51' E 006°29'713.1
2018-May-21 05:29N 57°48' E 006°40'713.8
2018-May-21 05:00N 57°48' E 006°53'713.4
2018-May-21 04:29N 57°47' E 007°05'713.7
2018-May-21 04:00N 57°47' E 007°18'713.6
2018-May-21 03:30N 57°46' E 007°30'713.5
2018-May-21 03:00N 57°46' E 007°43'713.5
2018-May-21 02:30N 57°47' E 007°56'713.8
2018-May-21 02:00N 57°50' E 008°07'713.7
2018-May-21 01:30N 57°54' E 008°18'713.4
2018-May-21 01:00N 57°57' E 008°29'1013.2
2018-May-21 00:15N 58°02' E 008°46'412.9
2018-May-20 23:56N 58°05' E 008°52'512.5
2018-May-20 23:30N 58°08' E 008°59'713.6
2018-May-20 23:00N 58°08' E 009°12'713.5
2018-May-20 22:30N 58°07' E 009°25'713.2
2018-May-20 22:00N 58°07' E 009°38'713.5
2018-May-20 21:30N 58°08' E 009°50'713.4
2018-May-20 21:00N 58°09' E 010°03'713.3
2018-May-20 20:29N 58°10' E 010°16'613.0
2018-May-20 20:00N 58°11' E 010°28'713.3
2018-May-20 19:30N 58°12' E 010°40'713.4
2018-May-20 19:00N 58°13' E 010°53'612.9
2018-May-20 18:30N 58°14' E 011°05'510.2
2018-May-20 18:00N 58°15' E 011°14'611.4
2018-May-20 17:30N 58°19' E 011°22'3 6.2
2018-May-20 17:00N 58°21' E 011°26'0 0.0
2018-May-20 04:33N 58°21' E 011°26'0 0.0
2018-May-20 04:30N 58°21' E 011°26'0 0.0
2018-May-20 03:09N 58°21' E 011°26'0 0.0
2018-May-20 03:00N 58°21' E 011°26'0 0.0
2018-May-20 00:39N 58°21' E 011°26'0 0.0
2018-May-20 00:21N 58°21' E 011°26'0 0.0
2018-May-20 00:00N 58°21' E 011°26'0 0.0
2018-May-18 22:31N 58°21' E 011°26'0 0.0
2018-May-18 22:30N 58°21' E 011°26'0 0.8
2018-May-18 22:00N 58°21' E 011°25'4 7.2
2018-May-18 21:30N 58°19' E 011°21'713.5
2018-May-18 21:01N 58°14' E 011°11'3 6.7
2018-May-18 20:30N 58°12' E 011°06'0 1.0
2018-May-18 20:01N 58°12' E 011°06'0 0.5
2018-May-18 19:31N 58°11' E 011°07'1 1.1
2018-May-18 19:01N 58°11' E 011°07'5 9.0
2018-May-18 18:30N 58°06' E 011°06'713.0
2018-May-18 18:00N 57°60' E 011°04'612.6
2018-May-18 17:31N 57°54' E 011°02'510.1
2018-May-18 17:01N 57°49' E 010°60'4 7.1
2018-May-18 16:30N 57°46' E 010°55'4 7.6
2018-May-18 16:00N 57°45' E 010°48'4 7.5
2018-May-18 15:30N 57°43' E 010°42'3 5.2
2018-May-18 15:01N 57°41' E 010°38'0 0.1
2018-May-18 14:27N 57°41' E 010°38'0 0.0
2018-May-18 13:57N 57°41' E 010°38'0 0.0
2018-May-18 13:30N 57°41' E 010°38'0 0.0
2018-May-18 13:00N 57°41' E 010°38'0 0.1
2018-May-18 12:30N 57°41' E 010°38'0 0.2
2018-May-18 12:00N 57°41' E 010°38'0 0.2
2018-May-18 11:30N 57°41' E 010°38'0 0.2
2018-May-18 11:00N 57°41' E 010°38'3 5.7
2018-May-18 10:30N 57°43' E 010°43'510.2
2018-May-18 10:00N 57°48' E 010°42'613.1
2018-May-18 09:30N 57°48' E 010°30'613.0
2018-May-18 09:00N 57°46' E 010°18'713.1
2018-May-18 08:30N 57°45' E 010°06'612.9
2018-May-18 08:00N 57°43' E 009°55'712.7
2018-May-18 07:29N 57°42' E 009°43'328 9.7
2018-May-16 21:42N 53°25' E 003°42'2 9.4
2018-May-16 21:28N 53°23' E 003°41'4 9.4
2018-May-16 21:00N 53°19' E 003°38'5 9.4
2018-May-16 20:30N 53°15' E 003°35'5 9.6
2018-May-16 19:57N 53°10' E 003°31'4 9.5
2018-May-16 19:29N 53°06' E 003°28'510.0
2018-May-16 19:00N 53°01' E 003°25'610.5
2018-May-16 18:26N 52°56' E 003°22'510.9
2018-May-16 17:58N 52°51' E 003°20'611.2
2018-May-16 17:27N 52°45' E 003°18'511.5
2018-May-16 17:00N 52°40' E 003°16'711.7
2018-May-16 16:26N 52°34' E 003°14'512.0
2018-May-16 16:00N 52°29' E 003°13'712.0
2018-May-16 15:23N 52°21' E 003°11'512.1
2018-May-16 14:56N 52°16' E 003°10'512.1
2018-May-16 14:30N 52°11' E 003°08'711.7
2018-May-16 13:53N 52°05' E 003°02'611.9
2018-May-16 13:22N 52°00' E 002°55'511.5
2018-May-16 12:59N 51°57' E 002°50'1011.2
2018-May-16 12:06N 51°49' E 002°40'110.8
2018-May-16 11:59N 51°48' E 002°39'510.5
2018-May-16 11:30N 51°44' E 002°34'510.2
2018-May-16 11:00N 51°40' E 002°28'5 9.8
2018-May-16 10:29N 51°36' E 002°23'5 9.3
2018-May-16 09:58N 51°33' E 002°18'4 8.8
2018-May-16 09:30N 51°29' E 002°14'4 8.6
2018-May-16 09:00N 51°25' E 002°12'4 8.9
2018-May-16 08:30N 51°21' E 002°09'4 8.8
2018-May-16 08:00N 51°17' E 002°06'4 8.7
2018-May-16 07:31N 51°13' E 002°03'5 9.1
2018-May-16 07:00N 51°11' E 001°56'5 9.3
2018-May-16 06:30N 51°09' E 001°50'5 9.3
2018-May-16 06:01N 51°06' E 001°44'5 9.6
2018-May-16 05:30N 51°03' E 001°39'5 9.8
2018-May-16 05:00N 50°59' E 001°34'510.7
2018-May-16 04:30N 50°55' E 001°28'611.4
2018-May-16 04:00N 50°49' E 001°25'612.1
2018-May-16 03:28N 50°43' E 001°22'511.6
2018-May-16 03:00N 50°39' E 001°16'712.4
2018-May-16 02:28N 50°35' E 001°08'1212.0
2018-May-16 01:27N 50°28' E 000°52'612.3
2018-May-16 01:00N 50°27' E 000°44'1612.5
2018-May-15 23:41N 50°23' E 000°19'612.9
2018-May-15 23:11N 50°21' E 000°09'313.2
2018-May-15 22:57N 50°20' E 000°05'613.6
2018-May-15 22:30N 50°19' W 000°05'714.2
2018-May-15 21:59N 50°17' W 000°16'1515.2
2018-May-15 21:00N 50°13' W 000°39'815.8
2018-May-15 20:30N 50°11' W 000°50'816.1
2018-May-15 20:00N 50°09' W 001°02'816.5
2018-May-15 19:30N 50°06' W 001°15'816.5
2018-May-15 19:00N 50°04' W 001°27'816.1
2018-May-15 18:30N 50°02' W 001°39'815.6
2018-May-15 18:00N 50°00' W 001°51'714.9
2018-May-15 17:30N 49°58' W 002°02'713.8
2018-May-15 17:00N 49°56' W 002°12'713.0
2018-May-15 16:30N 49°54' W 002°22'612.6
2018-May-15 16:01N 49°52' W 002°31'612.2
2018-May-15 15:30N 49°51' W 002°40'711.8
2018-May-15 14:53N 49°49' W 002°51'411.3
2018-May-15 14:30N 49°47' W 002°57'611.1
2018-May-15 14:00N 49°44' W 003°05'510.9
2018-May-15 13:30N 49°41' W 003°12'510.9
2018-May-15 13:00N 49°38' W 003°19'510.8
2018-May-15 12:30N 49°36' W 003°27'510.7
2018-May-15 12:00N 49°33' W 003°34'2511.0
2018-May-15 09:46N 49°22' W 004°07'311.4
2018-May-15 09:31N 49°20' W 004°11'711.7
2018-May-15 08:55N 49°16' W 004°20'2012.2
2018-May-15 07:17N 49°05' W 004°46'1413.0
2018-May-15 06:14N 48°58' W 005°03'413.7
2018-May-15 05:55N 48°56' W 005°09'913.8
2018-May-15 05:16N 48°52' W 005°21'414.3
2018-May-15 05:00N 48°50' W 005°26'1613.7
2018-May-15 03:51N 48°38' W 005°42'514.0
2018-May-15 03:28N 48°33' W 005°45'2113.3
2018-May-15 01:53N 48°12' W 005°38'1513.8
2018-May-15 00:49N 47°58' W 005°31'3912.2
2018-May-14 21:37N 47°28' W 004°54'112.6
2018-May-14 21:30N 47°28' W 004°52'812.7
2018-May-14 20:53N 47°24' W 004°42'  

Dump ship's entire track history